星链-32592 (STARLINK-32592)

导读

STARLINK-32592是美国太空探索技术公司(SpaceX)星链(Starlink)低轨互联网星座的成员卫星,于2024年11月21日由猎鹰9号运载火箭发射。作为星链全球组网计划的一部分,该卫星运行在近地轨道,主要为全球范围,尤其偏远地区,提供高速低时延的宽带互联网接入服务,助力星链实现全球覆盖的通信网络建设目标。

基本信息
目录编号:
62035
目录名称:
STARLINK-32592
国际标识:
2024-216D
轨道中心:
EARTH
卫星名称:
星链-32592
卫星全名:
星链-32592 (STARLINK-32592)
卫星状态:
在轨 (已飞行573 天)
发射日期:
2024-11-21 UTC
国别 :
美国 (US)
星等 :
--
轨道信息
数据来源 国际轨道数据
星历时间: 2026-06-16T18:37:01+0800
1天前
查看轨道信息
半长轴: 6861.152km
偏心率: 0.0002024
轨道倾角: 43.008°
近地点辐角 270.256°
升交点赤经 65.969°
平近点角 89.806°
近地点: 481.626km
远地点: 484.404km
周期: 94.266分钟
每日圈数: 15.275915
详细信息
固有亮度:
5
最大亮度:
2.5
卫星平台:
Starlink V1.0
覆盖范围:
全球
运营商:
太空探索技术公司
运营商所在国:
美国
制造商(研发单位):
太空探索技术公司
制造商所在国:
美国
使用方式:
暂无
卫星简介
Starlink 计划是 SpaceX 推出的全球卫星互联网项目,通过发射低轨道卫星,为全球尤其是偏远地区提供高速、低延迟的互联网服务。自 2019 年起,Starlink 已部署数千颗卫星,旨在缩小全球数字鸿沟,推动互联网普及。该项目还为军事、航空等行业提供通信支持,带来广泛经济效益。
2D轨道图
3D轨道图
轨道高度分析图
轨道倾角分析图
轨道综合分析图
查看轨道综合分析图